Location: Maccacari
(45.1333°N, 11.1333°E)
Time: 13:47:54
(UTC+00:00)

SR - All Passes

Search period start: 25 January 2021 00:00
Search period end: 04 February 2021 00:00
Orbit: 575 x 880 km, 66.7° (Epoch: 25 January)

Date Brightness Start Highest point End Pass type
(mag) Time Alt. Az. Time Alt. Az. Time Alt. Az.
25 Jan - 02:55:31 10° S 02:59:48 35° ESE 03:04:27 10° NE visible
25 Jan - 04:37:19 10° WSW 04:41:50 37° NW 04:46:45 10° NNE visible
25 Jan - 06:24:10 10° NW 06:25:37 11° NNW 06:27:05 10° N daylight
25 Jan - 09:52:20 10° N 09:55:23 14° NNE 09:58:30 10° ENE daylight
25 Jan - 11:33:14 10° NNW 11:38:52 49° NE 11:44:35 10° SE daylight
25 Jan - 13:15:40 10° NW 13:20:49 33° WSW 13:26:01 10° S daylight
26 Jan - 02:07:20 10° SE 02:10:27 18° ESE 02:13:45 10° ENE visible
26 Jan - 03:47:04 10° SW 03:51:51 66° NW 03:57:08 10° NNE visible
26 Jan - 05:31:59 10° WNW 05:35:05 16° NNW 05:38:19 10° N visible
26 Jan - 09:03:53 10° NNE 09:04:48 10° NNE 09:05:42 10° NNE daylight
26 Jan - 10:43:43 10° NNW 10:48:47 31° NE 10:53:58 10° ESE daylight
26 Jan - 12:25:31 10° NW 12:31:15 59° WSW 12:37:04 10° SSE daylight
27 Jan - 02:57:23 10° SSW 03:02:06 66° ESE 03:07:19 10° NE visible
27 Jan - 04:40:41 10° W 04:44:43 24° NW 04:49:02 10° NNE visible
27 Jan - 09:54:19 10° N 09:58:31 20° NE 10:02:49 10° E daylight
27 Jan - 11:35:41 10° NNW 11:41:31 80° ENE 11:47:27 10° SE daylight
27 Jan - 13:19:02 10° WNW 13:23:01 19° WSW 13:27:00 10° SSW daylight
28 Jan - 02:08:20 10° S 02:12:34 33° ESE 02:17:11 10° NE visible
28 Jan - 03:49:58 10° WSW 03:54:33 39° NW 03:59:34 10° NNE visible
28 Jan - 05:36:32 10° NW 05:38:17 11° NNW 05:40:05 10° N visible
28 Jan - 09:05:08 10° N 09:08:05 14° NNE 09:11:04 10° ENE daylight
28 Jan - 10:46:00 10° NNW 10:51:36 47° NE 10:57:19 10° SE daylight
28 Jan - 12:28:22 10° NW 12:33:37 35° WSW 12:38:54 10° S daylight
29 Jan - 01:20:16 10° SE 01:23:16 16° ESE 01:26:23 10° ENE visible
29 Jan - 02:59:47 10° SW 03:04:35 70° NW 03:09:55 10° NNE visible
29 Jan - 04:44:31 10° WNW 04:47:46 17° NNW 04:51:10 10° N visible
29 Jan - 08:16:59 10° NNE 08:17:28 10° NNE 08:17:57 10° NNE daylight
29 Jan - 09:56:29 10° NNW 10:01:31 29° NE 10:06:38 10° ESE daylight
29 Jan - 11:38:15 10° NW 11:44:02 63° WSW 11:49:53 10° SSE daylight
30 Jan - 02:10:08 10° SSW 02:14:51 61° ESE 02:20:04 10° NE visible
30 Jan - 03:53:17 10° W 03:57:25 25° NW 04:01:52 10° NNE visible
30 Jan - 09:07:06 10° N 09:11:14 20° NE 09:15:26 10° E daylight
30 Jan - 10:48:26 10° NNW 10:54:17 76° ENE 11:00:13 10° SE daylight
30 Jan - 12:31:40 10° WNW 12:35:50 20° WSW 12:39:59 10° SSW daylight
31 Jan - 01:21:10 10° S 01:25:21 31° ESE 01:29:54 10° NE visible
31 Jan - 03:02:37 10° WSW 03:07:16 41° NW 03:12:22 10° NNE visible
31 Jan - 04:48:56 10° NW 04:50:57 12° NNW 04:53:02 10° N visible
31 Jan - 08:17:57 10° N 08:20:46 14° NNE 08:23:37 10° ENE daylight
31 Jan - 09:58:47 10° NNW 10:04:21 45° NE 10:10:01 10° ESE daylight
31 Jan - 11:41:05 10° NW 11:46:25 37° WSW 11:51:46 10° S daylight
01 Feb - 00:33:14 10° SE 00:36:03 15° ESE 00:39:00 10° ENE night (unlit)
01 Feb - 02:12:29 10° SW 02:17:20 75° NW 02:22:42 10° NNE visible
01 Feb - 03:57:03 10° WNW 04:00:27 17° NNW 04:04:01 10° N visible
01 Feb - 09:09:16 10° NNW 09:14:15 28° NE 09:19:18 10° E daylight
01 Feb - 10:51:00 10° NW 10:56:49 67° WSW 11:02:41 10° SSE daylight
01 Feb - 12:36:35 10° W 12:37:54 11° W 12:39:12 10° WSW daylight
02 Feb - 01:22:54 10° SSW 01:27:37 58° ESE 01:32:49 10° NE visible
02 Feb - 03:05:53 10° W 03:10:07 26° NW 03:14:41 10° NNE visible
02 Feb - 08:19:54 10° N 08:23:56 19° NE 08:28:02 10° E daylight
02 Feb - 10:01:11 10° NNW 10:07:03 72° NE 10:12:58 10° SE daylight
02 Feb - 11:44:19 10° WNW 11:48:38 21° WSW 11:52:58 10° SSW daylight
03 Feb - 00:34:00 10° SSE 00:38:08 29° ESE 00:42:37 10° NE night (unlit)
03 Feb - 02:15:16 10° WSW 02:20:00 44° NW 02:25:10 10° NNE visible
03 Feb - 04:01:23 10° NW 04:03:38 13° NNW 04:05:57 10° N visible
03 Feb - 07:30:45 10° N 07:33:27 13° NNE 07:36:11 10° NE daylight
03 Feb - 09:11:33 10° NNW 09:17:06 43° NE 09:22:43 10° ESE daylight
03 Feb - 10:53:47 10° NW 10:59:12 39° WSW 11:04:38 10° S daylight
03 Feb - 23:46:13 10° SE 23:48:51 15° ESE 23:51:35 10° ENE night (unlit)
